When you browse on this site, cookies collect data to enhance your experience and personalize the content and advertising you see.
Visit our Privacy Policy to learn more. By continuing to use the site, you agree to this use of cookies and data.
  • In Germany
  • List of Countries
  • For 7 days
  • Water Temperature
  • Weather Map
  • Weather Widgets
  • user-avatar
    Login

    Hourly Weather Mauritius

    Today, 9 December, Monday

    Time Temperature Precipitation Wind Pressure Humidity
    00:00 +26°C° 0 mm 3 mps 722 mmHg 79%
    01:00 +25°C° 0 mm 2 mps 721 mmHg 81%
    02:00 +25°C° 0 mm 2 mps 721 mmHg 82%
    03:00 +25°C° 0 mm 2 mps 721 mmHg 83%
    04:00 +25°C° 0 mm 3 mps 720 mmHg 86%
    05:00 +25°C° 0 mm 3 mps 721 mmHg 84%
    06:00 +26°C° 0 mm 3 mps 721 mmHg 83%
    07:00 +26°C° 0 mm 4 mps 722 mmHg 82%
    08:00 +27°C° 0 mm 3 mps 722 mmHg 76%
    09:00 +28°C° 0 mm 3 mps 722 mmHg 69%
    10:00 +29°C° 0 mm 3 mps 722 mmHg 62%
    11:00 +30°C° 0 mm 3 mps 722 mmHg 62%
    12:00 +30°C° 0 mm 4 mps 722 mmHg 61%
    13:00 +32°C° 0 mm 4 mps 722 mmHg 61%
    14:00 +30°C° 0 mm 4 mps 721 mmHg 63%
    15:00 +30°C° 0 mm 4 mps 721 mmHg 65%
    16:00 +29°C° 0 mm 3 mps 721 mmHg 66%
    17:00 +29°C° 0.1 mm 3 mps 721 mmHg 70%
    18:00 +28°C° 0.1 mm 3 mps 721 mmHg 74%
    19:00 +27°C° 0.1 mm 2 mps 721 mmHg 77%
    20:00 +27°C° 0 mm 2 mps 722 mmHg 79%
    21:00 +27°C° 0 mm 2 mps 722 mmHg 81%
    22:00 +26°C° 0 mm 2 mps 723 mmHg 83%
    23:00 +26°C° 0 mm 2 mps 722 mmHg 83%

    Tomorrow, 10 December, Tuesday

    Time Temperature Precipitation Wind Pressure Humidity
    00:00 +26°C° 0 mm 2 mps 722 mmHg 83%
    01:00 +26°C° 0 mm 2 mps 722 mmHg 83%
    02:00 +26°C° 0 mm 2 mps 721 mmHg 84%
    03:00 +26°C° 0 mm 2 mps 721 mmHg 84%
    04:00 +26°C° 0 mm 1 mps 721 mmHg 85%
    05:00 +26°C° 0 mm 1 mps 721 mmHg 83%
    06:00 +26°C° 0 mm 2 mps 722 mmHg 82%
    07:00 +26°C° 0 mm 2 mps 722 mmHg 80%
    08:00 +27°C° 0 mm 2 mps 722 mmHg 76%
    09:00 +28°C° 0 mm 2 mps 723 mmHg 71%
    10:00 +29°C° 0 mm 2 mps 723 mmHg 67%
    11:00 +30°C° 0 mm 2 mps 722 mmHg 66%
    12:00 +30°C° 0 mm 3 mps 722 mmHg 65%
    13:00 +30°C° 0 mm 3 mps 722 mmHg 65%
    14:00 +30°C° 0 mm 3 mps 721 mmHg 65%
    15:00 +30°C° 0 mm 3 mps 721 mmHg 65%
    16:00 +29°C° 0 mm 3 mps 721 mmHg 66%
    17:00 +29°C° 0 mm 3 mps 721 mmHg 68%
    18:00 +28°C° 0 mm 2 mps 722 mmHg 71%
    19:00 +28°C° 0 mm 2 mps 722 mmHg 74%
    20:00 +27°C° 0 mm 2 mps 722 mmHg 76%
    21:00 +27°C° 0 mm 2 mps 723 mmHg 78%
    22:00 +27°C° 0 mm 2 mps 723 mmHg 80%
    23:00 +26°C° 0 mm 2 mps 722 mmHg 81%

    Day after tomorrow, 11 December, Wednesday

    Time Temperature Precipitation Wind Pressure Humidity
    00:00 +26°C° 0 mm 2 mps 722 mmHg 82%
    01:00 +26°C° 0 mm 2 mps 721 mmHg 83%
    02:00 +26°C° 0 mm 2 mps 721 mmHg 84%
    03:00 +25°C° 0 mm 2 mps 721 mmHg 85%
    04:00 +25°C° 0 mm 2 mps 721 mmHg 86%
    05:00 +26°C° 0 mm 2 mps 721 mmHg 84%
    06:00 +26°C° 0 mm 2 mps 721 mmHg 83%
    07:00 +26°C° 0 mm 2 mps 722 mmHg 81%
    08:00 +27°C° 0 mm 3 mps 722 mmHg 77%
    09:00 +28°C° 0 mm 3 mps 722 mmHg 72%
    10:00 +29°C° 0 mm 4 mps 723 mmHg 68%
    11:00 +29°C° 0.1 mm 4 mps 722 mmHg 67%
    12:00 +30°C° 0.1 mm 4 mps 722 mmHg 66%
    13:00 +30°C° 0.1 mm 4 mps 722 mmHg 65%
    14:00 +29°C° 0.7 mm 4 mps 722 mmHg 66%
    15:00 +29°C° 0.7 mm 3 mps 722 mmHg 68%
    16:00 +29°C° 0.7 mm 3 mps 721 mmHg 69%
    17:00 +28°C° 0.4 mm 3 mps 721 mmHg 71%
    18:00 +28°C° 0.4 mm 2 mps 722 mmHg 74%
    19:00 +27°C° 0.4 mm 2 mps 722 mmHg 76%
    20:00 +27°C° 0.1 mm 2 mps 722 mmHg 77%
    21:00 +27°C° 0.1 mm 2 mps 722 mmHg 78%
    22:00 +27°C° 0.1 mm 1 mps 723 mmHg 78%
    23:00 +26°C° 0.1 mm 2 mps 722 mmHg 79%

    12 December, Thursday

    Time Temperature Precipitation Wind Pressure Humidity
    00:00 +26°C° 0.1 mm 2 mps 722 mmHg 79%
    01:00 +26°C° 0.1 mm 2 mps 722 mmHg 80%
    02:00 +26°C° 0 mm 2 mps 721 mmHg 81%
    03:00 +26°C° 0 mm 2 mps 721 mmHg 82%
    04:00 +25°C° 0 mm 2 mps 721 mmHg 83%
    05:00 +26°C° 0 mm 3 mps 721 mmHg 83%
    06:00 +26°C° 0 mm 3 mps 722 mmHg 82%
    07:00 +26°C° 0 mm 4 mps 722 mmHg 81%
    08:00 +27°C° 0 mm 4 mps 722 mmHg 77%
    09:00 +28°C° 0 mm 4 mps 722 mmHg 73%
    10:00 +29°C° 0 mm 4 mps 722 mmHg 69%
    11:00 +29°C° 0 mm 5 mps 722 mmHg 67%
    12:00 +29°C° 0 mm 5 mps 722 mmHg 65%
    13:00 +30°C° 0 mm 5 mps 722 mmHg 64%
    14:00 +29°C° 0.1 mm 5 mps 721 mmHg 65%
    15:00 +29°C° 0.1 mm 5 mps 721 mmHg 66%
    16:00 +29°C° 0.1 mm 5 mps 721 mmHg 67%
    17:00 +28°C° 0 mm 5 mps 721 mmHg 71%
    18:00 +27°C° 0 mm 4 mps 721 mmHg 74%
    19:00 +27°C° 0 mm 4 mps 721 mmHg 77%
    20:00 +26°C° 0 mm 4 mps 721 mmHg 78%
    21:00 +26°C° 0 mm 4 mps 722 mmHg 80%
    22:00 +26°C° 0 mm 4 mps 722 mmHg 81%
    23:00 +26°C° 0 mm 4 mps 722 mmHg 83%

    13 December, Friday

    Time Temperature Precipitation Wind Pressure Humidity
    00:00 +25°C° 0 mm 4 mps 721 mmHg 84%
    01:00 +25°C° 0 mm 4 mps 721 mmHg 86%
    02:00 +25°C° 0 mm 4 mps 721 mmHg 85%
    03:00 +25°C° 0 mm 3 mps 721 mmHg 85%
    04:00 +25°C° 0 mm 2 mps 721 mmHg 85%
    05:00 +25°C° 0 mm 2 mps 721 mmHg 83%
    06:00 +25°C° 0 mm 2 mps 722 mmHg 81%
    07:00 +26°C° 0 mm 3 mps 722 mmHg 79%
    08:00 +27°C° 0 mm 3 mps 723 mmHg 74%
    09:00 +28°C° 0 mm 3 mps 723 mmHg 68%
    10:00 +29°C° 0 mm 4 mps 723 mmHg 62%
    11:00 +29°C° 0 mm 4 mps 723 mmHg 60%
    12:00 +30°C° 0 mm 4 mps 722 mmHg 59%
    13:00 +30°C° 0 mm 4 mps 722 mmHg 57%
    14:00 +30°C° 0 mm 4 mps 722 mmHg 59%
    15:00 +29°C° 0 mm 4 mps 722 mmHg 61%
    16:00 +29°C° 0 mm 4 mps 721 mmHg 64%
    17:00 +28°C° 0 mm 4 mps 722 mmHg 68%
    18:00 +28°C° 0 mm 3 mps 722 mmHg 72%
    19:00 +27°C° 0 mm 3 mps 722 mmHg 77%
    20:00 +27°C° 0 mm 3 mps 723 mmHg 78%
    21:00 +26°C° 0 mm 2 mps 723 mmHg 79%
    22:00 +26°C° 0 mm 2 mps 723 mmHg 80%
    23:00 +26°C° 0 mm 2 mps 723 mmHg 80%

    14 December, Saturday

    Time Temperature Precipitation Wind Pressure Humidity
    00:00 +25°C° 0 mm 2 mps 723 mmHg 81%
    01:00 +25°C° 0 mm 2 mps 722 mmHg 81%
    02:00 +25°C° 0 mm 2 mps 722 mmHg 82%
    03:00 +25°C° 0 mm 2 mps 722 mmHg 84%
    04:00 +25°C° 0 mm 1 mps 722 mmHg 85%
    05:00 +25°C° 0 mm 2 mps 722 mmHg 83%
    06:00 +26°C° 0 mm 2 mps 723 mmHg 80%
    07:00 +26°C° 0 mm 2 mps 723 mmHg 78%
    08:00 +27°C° 0 mm 3 mps 723 mmHg 74%
    09:00 +28°C° 0 mm 3 mps 723 mmHg 69%
    10:00 +29°C° 0 mm 4 mps 724 mmHg 65%
    11:00 +29°C° 0 mm 4 mps 723 mmHg 65%
    12:00 +29°C° 0 mm 4 mps 723 mmHg 66%
    13:00 +29°C° 0 mm 4 mps 723 mmHg 66%
    14:00 +29°C° 0.2 mm 4 mps 723 mmHg 67%
    15:00 +29°C° 0.2 mm 5 mps 722 mmHg 69%
    16:00 +28°C° 0.2 mm 5 mps 722 mmHg 70%
    17:00 +28°C° 0.1 mm 5 mps 722 mmHg 73%
    18:00 +27°C° 0.1 mm 4 mps 723 mmHg 76%
    19:00 +26°C° 0.1 mm 4 mps 723 mmHg 79%
    20:00 +26°C° 0 mm 4 mps 723 mmHg 80%
    21:00 +26°C° 0 mm 4 mps 723 mmHg 81%
    22:00 +25°C° 0 mm 4 mps 724 mmHg 83%
    23:00 +25°C° 0 mm 4 mps 723 mmHg 82%
    Show more